Year,Month,Day,Hour,Minute,Value (Times are PST for windgust in km/hr)
2012,01,24,13,13,14.50
2012,01,24,13,14,32.20
2012,01,24,13,15,29.00
2012,01,24,13,16,27.40
2012,01,24,13,17,27.40
2012,01,24,13,18,27.40
2012,01,24,13,19,24.20
2012,01,24,13,20,19.30
2012,01,24,13,21,20.90
2012,01,24,13,22,27.40
2012,01,24,13,23,25.70
2012,01,24,13,24,27.40
2012,01,24,13,25,30.60
2012,01,24,13,26,24.20
2012,01,24,13,27,27.40
2012,01,24,13,28,38.60
2012,01,24,13,29,35.40
2012,01,24,13,30,46.70
2012,01,24,13,31,40.20
2012,01,24,13,32,25.70
2012,01,24,13,33,32.20
2012,01,24,13,34,32.20
2012,01,24,13,35,29.00
2012,01,24,13,36,29.00
2012,01,24,13,37,38.60
2012,01,24,13,38,14.50
2012,01,24,13,39,46.70
2012,01,24,13,40,22.50
2012,01,24,13,41,37.00
2012,01,24,13,42,25.70
2012,01,24,13,43,20.90
2012,01,24,13,44,35.40
2012,01,24,13,45,38.60
2012,01,24,13,46,17.70
2012,01,24,13,47,29.00
2012,01,24,13,48,20.90
2012,01,24,13,49,27.40
2012,01,24,13,50,29.00
2012,01,24,13,51,20.90
2012,01,24,13,52,24.20
2012,01,24,13,53,20.90
2012,01,24,13,54,33.80
2012,01,24,13,55,27.40
2012,01,24,13,56,35.40
2012,01,24,13,57,20.90
2012,01,24,13,58,33.80
2012,01,24,13,59,30.60
2012,01,24,14,00,22.50
2012,01,24,14,01,25.70
2012,01,24,14,02,24.20
2012,01,24,14,03,17.70
2012,01,24,14,04,19.30
2012,01,24,14,05,37.00
2012,01,24,14,06,25.70
2012,01,24,14,07,19.30
2012,01,24,14,08,41.80
2012,01,24,14,09,22.50
2012,01,24,14,10,30.60
2012,01,24,14,11,27.40
2012,01,24,14,12,30.60
2012,01,24,14,13,20.90
2012,01,24,14,14,17.70
2012,01,24,14,15,30.60
2012,01,24,14,16,30.60
2012,01,24,14,17,32.20
2012,01,24,14,18,29.00
2012,01,24,14,19,22.50
2012,01,24,14,20,22.50
2012,01,24,14,21,25.70
2012,01,24,14,22,30.60
2012,01,24,14,23,22.50
2012,01,24,14,24,17.70
2012,01,24,14,25,20.90
2012,01,24,14,26,32.20
2012,01,24,14,27,27.40
2012,01,24,14,28,29.00
2012,01,24,14,29,35.40
2012,01,24,14,30,25.70
2012,01,24,14,31,19.30
2012,01,24,14,32,24.20
2012,01,24,14,33,25.70
2012,01,24,14,34,22.50
2012,01,24,14,35,32.20
2012,01,24,14,36,22.50
2012,01,24,14,37,30.60
2012,01,24,14,38,12.90
2012,01,24,14,39,38.60
2012,01,24,14,40,22.50
2012,01,24,14,41,27.40
2012,01,24,14,42,19.30
2012,01,24,14,43,24.20
2012,01,24,14,44,27.40
2012,01,24,14,45,29.00
2012,01,24,14,46,16.10
2012,01,24,14,47,29.00
2012,01,24,14,48,27.40
2012,01,24,14,49,27.40
2012,01,24,14,50,22.50
2012,01,24,14,51,29.00
2012,01,24,14,52,22.50
2012,01,24,14,53,29.00
2012,01,24,14,54,22.50
2012,01,24,14,55,22.50
2012,01,24,14,56,19.30
2012,01,24,14,57,29.00
2012,01,24,14,58,30.60
2012,01,24,14,59,17.70
2012,01,24,15,00,24.20
2012,01,24,15,01,16.10
2012,01,24,15,02,11.30
2012,01,24,15,03,19.30
2012,01,24,15,04,17.70
2012,01,24,15,05,30.60
2012,01,24,15,06,27.40
2012,01,24,15,07,22.50
2012,01,24,15,08,25.70
2012,01,24,15,09,25.70
2012,01,24,15,10,19.30
2012,01,24,15,11,22.50
2012,01,24,15,12,14.50
2012,01,24,15,13,17.70
2012,01,24,15,14,29.00
2012,01,24,15,15,27.40
2012,01,24,15,16,24.20
2012,01,24,15,17,11.30
2012,01,24,15,18,16.10
2012,01,24,15,19,22.50
2012,01,24,15,20,30.60
2012,01,24,15,21,17.70
2012,01,24,15,22,17.70
2012,01,24,15,23,19.30
2012,01,24,15,24,24.20
2012,01,24,15,25,20.90
2012,01,24,15,26,16.10
2012,01,24,15,27,8.10
2012,01,24,15,30,20.90
2012,01,24,15,31,24.20
2012,01,24,15,32,9.60
2012,01,24,15,33,11.30
2012,01,24,15,34,17.70
2012,01,24,15,35,19.30
2012,01,24,15,36,20.90
2012,01,24,15,37,9.60
2012,01,24,15,38,14.50
2012,01,24,15,39,17.70
2012,01,24,15,40,17.70
2012,01,24,15,41,19.30
2012,01,24,15,42,19.30
2012,01,24,15,43,9.60
2012,01,24,15,44,17.70
2012,01,24,15,45,11.30
2012,01,24,15,46,17.70
2012,01,24,15,47,19.30
2012,01,24,15,48,17.70
2012,01,24,15,49,8.10
2012,01,24,15,50,20.90
2012,01,24,15,51,20.90
2012,01,24,15,52,16.10
2012,01,24,15,53,25.70
2012,01,24,15,54,16.10
2012,01,24,15,55,17.70
2012,01,24,15,56,16.10
2012,01,24,15,57,16.10
2012,01,24,15,58,17.70
2012,01,24,15,59,20.90
2012,01,24,16,00,19.30
2012,01,24,16,01,14.50
2012,01,24,16,02,14.50
2012,01,24,16,03,9.60
2012,01,24,16,04,17.70
2012,01,24,16,05,19.30
2012,01,24,16,06,14.50
2012,01,24,16,07,20.90
2012,01,24,16,08,9.60
2012,01,24,16,09,14.50
2012,01,24,16,10,11.30
2012,01,24,16,11,16.10
2012,01,24,16,12,17.70
2012,01,24,16,13,17.70
2012,01,24,16,14,14.50
2012,01,24,16,15,24.20
2012,01,24,16,16,19.30
2012,01,24,16,17,16.10
2012,01,24,16,18,6.40
2012,01,24,16,19,3.20
2012,01,24,16,20,11.30
2012,01,24,16,21,9.60
2012,01,24,16,22,6.40
2012,01,24,16,23,19.30
2012,01,24,16,24,17.70
2012,01,24,16,25,17.70
2012,01,24,16,26,11.30
2012,01,24,16,27,20.90
2012,01,24,16,28,17.70
2012,01,24,16,29,4.80
2012,01,24,16,30,9.60
2012,01,24,16,31,16.10
2012,01,24,16,32,9.60
2012,01,24,16,33,16.10
2012,01,24,16,34,4.80
2012,01,24,16,35,4.80
2012,01,24,16,36,11.30
2012,01,24,16,37,9.60
2012,01,24,16,38,4.80
2012,01,24,16,39,9.60
2012,01,24,16,40,11.30
2012,01,24,16,41,8.10
2012,01,24,16,42,6.40
2012,01,24,16,43,6.40
2012,01,24,16,44,9.60
2012,01,24,16,45,8.10
2012,01,24,16,46,9.60
2012,01,24,16,47,9.60
2012,01,24,16,48,9.60
2012,01,24,16,49,6.40
2012,01,24,16,50,6.40
2012,01,24,16,51,8.10
2012,01,24,16,52,8.10
2012,01,24,16,53,12.90
2012,01,24,16,54,8.10
2012,01,24,16,55,14.50
2012,01,24,16,56,8.10
2012,01,24,16,57,9.60
2012,01,24,16,58,4.80
2012,01,24,16,59,8.10
2012,01,24,17,00,19.30
2012,01,24,17,01,17.70
2012,01,24,17,02,24.20
2012,01,24,17,03,16.10
2012,01,24,17,04,6.40
2012,01,24,17,05,3.20
2012,01,24,17,06,3.20
2012,01,24,17,07,3.20
2012,01,24,17,08,6.40
2012,01,24,17,09,6.40
2012,01,24,17,10,4.80
2012,01,24,17,12,1.60
2012,01,24,17,13,1.60
2012,01,24,17,14,6.40
2012,01,24,17,15,6.40
2012,01,24,17,16,3.20
2012,01,24,17,17,3.20
2012,01,24,17,18,3.20
2012,01,24,17,19,4.80
2012,01,24,17,20,4.80
2012,01,24,17,21,8.10
2012,01,24,17,22,6.40
2012,01,24,17,23,11.30
2012,01,24,17,24,12.90
2012,01,24,17,25,6.40
2012,01,24,17,26,8.10
2012,01,24,17,27,6.40
2012,01,24,17,28,11.30
2012,01,24,17,29,9.60
2012,01,24,17,30,4.80
2012,01,24,17,31,6.40
2012,01,24,17,32,4.80
2012,01,24,17,33,8.10
2012,01,24,17,34,16.10
2012,01,24,17,35,11.30
2012,01,24,17,36,8.10
2012,01,24,17,37,9.60
2012,01,24,17,38,14.50
2012,01,24,17,39,16.10
2012,01,24,17,40,8.10
2012,01,24,17,41,4.80
2012,01,24,17,42,11.30
2012,01,24,17,43,11.30
2012,01,24,17,44,4.80
2012,01,24,17,45,3.20
2012,01,24,17,46,4.80
2012,01,24,17,47,3.20
2012,01,24,17,48,1.60
2012,01,24,17,49,11.30
2012,01,24,17,50,11.30
2012,01,24,17,51,8.10
2012,01,24,17,52,8.10
2012,01,24,17,53,8.10
2012,01,24,17,54,6.40
2012,01,24,17,55,6.40
2012,01,24,17,56,9.60
2012,01,24,17,57,8.10
2012,01,24,17,58,8.10
2012,01,24,17,59,8.10
2012,01,24,18,00,8.10
2012,01,24,18,01,8.10
2012,01,24,18,02,12.90
2012,01,24,18,03,16.10
2012,01,24,18,04,9.60
2012,01,24,18,05,6.40
2012,01,24,18,06,4.80
2012,01,24,18,07,8.10
2012,01,24,18,08,9.60
2012,01,24,18,09,6.40
2012,01,24,18,10,4.80
2012,01,24,18,11,4.80
2012,01,24,18,12,4.80
2012,01,24,18,15,3.20
2012,01,24,18,16,4.80
2012,01,24,18,17,4.80
2012,01,24,18,19,4.80
2012,01,24,18,20,6.40
2012,01,24,18,21,4.80
2012,01,24,18,22,4.80
2012,01,24,18,23,8.10
2012,01,24,18,24,6.40
2012,01,24,18,25,3.20
2012,01,24,18,26,1.60
2012,01,24,18,27,4.80
2012,01,24,18,28,1.60
2012,01,24,18,29,3.20
2012,01,24,18,30,4.80
2012,01,24,18,32,4.80
2012,01,24,18,33,4.80
2012,01,24,18,34,6.40
2012,01,24,18,35,4.80
2012,01,24,18,36,8.10
2012,01,24,18,37,8.10
2012,01,24,18,38,9.60
2012,01,24,18,39,11.30
2012,01,24,18,40,6.40
2012,01,24,18,41,3.20
2012,01,24,18,42,4.80
2012,01,24,18,43,6.40
2012,01,24,18,44,3.20
2012,01,24,18,45,6.40
2012,01,24,18,46,6.40
2012,01,24,18,47,4.80
2012,01,24,18,48,4.80
2012,01,24,18,49,6.40
2012,01,24,18,50,1.60
2012,01,24,18,51,8.10
2012,01,24,18,52,3.20
2012,01,24,18,55,3.20
2012,01,24,18,56,3.20
2012,01,24,18,57,4.80
2012,01,24,18,58,4.80
2012,01,24,18,59,3.20
2012,01,24,19,00,6.40
2012,01,24,19,01,4.80
2012,01,24,19,02,3.20
2012,01,24,19,04,3.20
2012,01,24,19,05,8.10
2012,01,24,19,06,4.80
2012,01,24,19,07,3.20
2012,01,24,19,08,4.80
2012,01,24,19,09,8.10
2012,01,24,19,10,6.40
2012,01,24,19,11,1.60
2012,01,24,19,12,1.60
2012,01,24,19,13,8.10
2012,01,24,19,14,8.10
2012,01,24,19,15,6.40
2012,01,24,19,16,8.10
2012,01,24,19,17,8.10
2012,01,24,19,18,8.10
2012,01,24,19,19,9.60
2012,01,24,19,20,8.10
2012,01,24,19,21,8.10
2012,01,24,19,22,6.40
2012,01,24,19,23,9.60
2012,01,24,19,24,14.50
2012,01,24,19,25,8.10
2012,01,24,19,26,9.60
2012,01,24,19,27,9.60
2012,01,24,19,28,6.40
2012,01,24,19,29,6.40
2012,01,24,19,30,8.10
2012,01,24,19,31,9.60
2012,01,24,19,32,14.50
2012,01,24,19,33,14.50
2012,01,24,19,34,6.40
2012,01,24,19,35,12.90
2012,01,24,19,36,11.30
2012,01,24,19,37,14.50
2012,01,24,19,38,6.40
2012,01,24,19,39,25.70
2012,01,24,19,40,17.70
2012,01,24,19,41,16.10
2012,01,24,19,42,19.30
2012,01,24,19,43,9.60
2012,01,24,19,44,4.80
2012,01,24,19,45,9.60
2012,01,24,19,46,20.90
2012,01,24,19,47,17.70
2012,01,24,19,48,16.10
2012,01,24,19,49,17.70
2012,01,24,19,50,4.80
2012,01,24,19,51,4.80
2012,01,24,19,52,8.10
2012,01,24,19,53,30.60
2012,01,24,19,54,6.40
2012,01,24,19,55,4.80
2012,01,24,19,56,9.60
2012,01,24,19,57,4.80
2012,01,24,19,58,3.20
2012,01,24,19,59,3.20
2012,01,24,20,00,4.80
2012,01,24,20,01,1.60
2012,01,24,20,02,4.80
2012,01,24,20,03,8.10
2012,01,24,20,04,6.40
2012,01,24,20,05,1.60
2012,01,24,20,06,6.40
2012,01,24,20,07,17.70
2012,01,24,20,08,14.50
2012,01,24,20,09,9.60
2012,01,24,20,10,14.50
2012,01,24,20,11,4.80
2012,01,24,20,12,6.40
2012,01,24,20,13,8.10
2012,01,24,20,14,17.70
2012,01,24,20,15,9.60
2012,01,24,20,16,14.50
2012,01,24,20,17,16.10
2012,01,24,20,18,24.20
2012,01,24,20,19,41.80
2012,01,24,20,20,59.50
2012,01,24,20,21,32.20
2012,01,24,20,22,20.90
2012,01,24,20,23,20.90
2012,01,24,20,24,24.20
2012,01,24,20,25,30.60
2012,01,24,20,26,17.70
2012,01,24,20,27,9.60
2012,01,24,20,28,20.90
2012,01,24,20,29,19.30
2012,01,24,20,30,24.20
2012,01,24,20,31,37.00
2012,01,24,20,32,27.40
2012,01,24,20,33,19.30
2012,01,24,20,34,19.30
2012,01,24,20,35,16.10
2012,01,24,20,36,16.10
2012,01,24,20,37,20.90
2012,01,24,20,38,20.90
2012,01,24,20,39,9.60
2012,01,24,20,40,30.60
2012,01,24,20,41,24.20
2012,01,24,20,42,30.60
2012,01,24,20,43,32.20
2012,01,24,20,44,30.60
2012,01,24,20,45,17.70
2012,01,24,20,46,25.70
2012,01,24,20,47,35.40
2012,01,24,20,48,9.60
2012,01,24,20,49,53.10
2012,01,24,20,50,20.90
2012,01,24,20,51,19.30
2012,01,24,20,52,19.30
2012,01,24,20,53,25.70
2012,01,24,20,54,24.20
2012,01,24,20,55,20.90
2012,01,24,20,56,27.40
2012,01,24,20,57,24.20
2012,01,24,20,58,20.90
2012,01,24,20,59,16.10
2012,01,24,21,00,12.90
2012,01,24,21,01,37.00
2012,01,24,21,02,27.40
2012,01,24,21,03,19.30
2012,01,24,21,04,19.30
2012,01,24,21,05,27.40
2012,01,24,21,06,22.50
2012,01,24,21,07,16.10
2012,01,24,21,08,33.80
2012,01,24,21,09,32.20
2012,01,24,21,10,37.00
2012,01,24,21,11,19.30
2012,01,24,21,12,30.60
2012,01,24,21,13,14.50
2012,01,24,21,14,27.40
2012,01,24,21,15,27.40
2012,01,24,21,16,27.40
2012,01,24,21,17,32.20
2012,01,24,21,18,19.30
2012,01,24,21,19,20.90
2012,01,24,21,20,25.70
2012,01,24,21,21,17.70
2012,01,24,21,22,11.30
2012,01,24,21,23,30.60
2012,01,24,21,24,46.70
2012,01,24,21,25,22.50
2012,01,24,21,26,27.40
2012,01,24,21,27,20.90
2012,01,24,21,28,30.60
